timestamp,waterbody_station,lease,latitude,longitude,deployment_start_date,deployment_end_date,sensor,depth,mooring,Temperature_degrees Celsius,Dissolved Oxygen_percent saturation,Salinity_practical salinity units
2019-01-12T00:00:00,Denas Pond-0193,193.0,46.00718,-60.98854,2018-10-30,2019-09-17,HOBO-10755219,2.0,fixed,5.872,,
2019-01-12T00:15:00,Denas Pond-0193,193.0,46.00718,-60.98854,2018-10-30,2019-09-17,HOBO-10755219,2.0,fixed,5.898,,
2019-01-12T00:30:00,Denas Pond-0193,193.0,46.00718,-60.98854,2018-10-30,2019-09-17,HOBO-10755219,2.0,fixed,5.924,,
2019-01-12T00:45:00,Denas Pond-0193,193.0,46.00718,-60.98854,2018-10-30,2019-09-17,HOBO-10755219,2.0,fixed,5.975,,
2019-01-12T01:00:00,Denas Pond-0193,193.0,46.00718,-60.98854,2018-10-30,2019-09-17,HOBO-10755219,2.0,fixed,6.0,,
2019-01-12T01:15:00,Denas Pond-0193,193.0,46.00718,-60.98854,2018-10-30,2019-09-17,HOBO-10755219,2.0,fixed,6.026,,
2019-01-12T01:30:00,Denas Pond-0193,193.0,46.00718,-60.98854,2018-10-30,2019-09-17,HOBO-10755219,2.0,fixed,6.077,,
2019-01-12T01:45:00,Denas Pond-0193,193.0,46.00718,-60.98854,2018-10-30,2019-09-17,HOBO-10755219,2.0,fixed,6.128,,
2019-01-12T02:00:00,Denas Pond-0193,193.0,46.00718,-60.98854,2018-10-30,2019-09-17,HOBO-10755219,2.0,fixed,6.077,,
2019-01-12T02:15:00,Denas Pond-0193,193.0,46.00718,-60.98854,2018-10-30,2019-09-17,HOBO-10755219,2.0,fixed,6.051,,
2019-01-12T02:30:00,Denas Pond-0193,193.0,46.00718,-60.98854,2018-10-30,2019-09-17,HOBO-10755219,2.0,fixed,6.051,,
2019-01-12T02:45:00,Denas Pond-0193,193.0,46.00718,-60.98854,2018-10-30,2019-09-17,HOBO-10755219,2.0,fixed,5.949,,
2019-01-12T03:00:00,Denas Pond-0193,193.0,46.00718,-60.98854,2018-10-30,2019-09-17,HOBO-10755219,2.0,fixed,5.898,,
2019-01-12T03:15:00,Denas Pond-0193,193.0,46.00718,-60.98854,2018-10-30,2019-09-17,HOBO-10755219,2.0,fixed,5.821,,
2019-01-12T03:30:00,Denas Pond-0193,193.0,46.00718,-60.98854,2018-10-30,2019-09-17,HOBO-10755219,2.0,fixed,5.796,,
2019-01-12T03:45:00,Denas Pond-0193,193.0,46.00718,-60.98854,2018-10-30,2019-09-17,HOBO-10755219,2.0,fixed,5.77,,
2019-01-12T04:00:00,Denas Pond-0193,193.0,46.00718,-60.98854,2018-10-30,2019-09-17,HOBO-10755219,2.0,fixed,5.77,,
2019-01-12T04:15:00,Denas Pond-0193,193.0,46.00718,-60.98854,2018-10-30,2019-09-17,HOBO-10755219,2.0,fixed,5.77,,
2019-01-12T04:30:00,Denas Pond-0193,193.0,46.00718,-60.98854,2018-10-30,2019-09-17,HOBO-10755219,2.0,fixed,5.77,,
2019-01-12T04:45:00,Denas Pond-0193,193.0,46.00718,-60.98854,2018-10-30,2019-09-17,HOBO-10755219,2.0,fixed,5.745,,
2019-01-12T05:00:00,Denas Pond-0193,193.0,46.00718,-60.98854,2018-10-30,2019-09-17,HOBO-10755219,2.0,fixed,5.745,,
2019-01-12T05:15:00,Denas Pond-0193,193.0,46.00718,-60.98854,2018-10-30,2019-09-17,HOBO-10755219,2.0,fixed,5.77,,
2019-01-12T05:30:00,Denas Pond-0193,193.0,46.00718,-60.98854,2018-10-30,2019-09-17,HOBO-10755219,2.0,fixed,5.821,,
2019-01-12T05:45:00,Denas Pond-0193,193.0,46.00718,-60.98854,2018-10-30,2019-09-17,HOBO-10755219,2.0,fixed,5.872,,
2019-01-12T06:00:00,Denas Pond-0193,193.0,46.00718,-60.98854,2018-10-30,2019-09-17,HOBO-10755219,2.0,fixed,5.821,,
2019-01-12T06:15:00,Denas Pond-0193,193.0,46.00718,-60.98854,2018-10-30,2019-09-17,HOBO-10755219,2.0,fixed,5.796,,
2019-01-12T06:30:00,Denas Pond-0193,193.0,46.00718,-60.98854,2018-10-30,2019-09-17,HOBO-10755219,2.0,fixed,5.847,,
2019-01-12T06:45:00,Denas Pond-0193,193.0,46.00718,-60.98854,2018-10-30,2019-09-17,HOBO-10755219,2.0,fixed,5.872,,
2019-01-12T07:00:00,Denas Pond-0193,193.0,46.00718,-60.98854,2018-10-30,2019-09-17,HOBO-10755219,2.0,fixed,5.872,,
2019-01-12T07:15:00,Denas Pond-0193,193.0,46.00718,-60.98854,2018-10-30,2019-09-17,HOBO-10755219,2.0,fixed,5.872,,
2019-01-12T07:30:00,Denas Pond-0193,193.0,46.00718,-60.98854,2018-10-30,2019-09-17,HOBO-10755219,2.0,fixed,5.745,,
2019-01-12T07:45:00,Denas Pond-0193,193.0,46.00718,-60.98854,2018-10-30,2019-09-17,HOBO-10755219,2.0,fixed,5.642,,
2019-01-12T08:00:00,Denas Pond-0193,193.0,46.00718,-60.98854,2018-10-30,2019-09-17,HOBO-10755219,2.0,fixed,5.591,,
2019-01-12T08:15:00,Denas Pond-0193,193.0,46.00718,-60.98854,2018-10-30,2019-09-17,HOBO-10755219,2.0,fixed,5.539,,
2019-01-12T08:30:00,Denas Pond-0193,193.0,46.00718,-60.98854,2018-10-30,2019-09-17,HOBO-10755219,2.0,fixed,5.539,,
2019-01-12T08:45:00,Denas Pond-0193,193.0,46.00718,-60.98854,2018-10-30,2019-09-17,HOBO-10755219,2.0,fixed,5.616,,
2019-01-12T09:00:00,Denas Pond-0193,193.0,46.00718,-60.98854,2018-10-30,2019-09-17,HOBO-10755219,2.0,fixed,5.616,,
2019-01-12T09:15:00,Denas Pond-0193,193.0,46.00718,-60.98854,2018-10-30,2019-09-17,HOBO-10755219,2.0,fixed,5.539,,
2019-01-12T09:30:00,Denas Pond-0193,193.0,46.00718,-60.98854,2018-10-30,2019-09-17,HOBO-10755219,2.0,fixed,5.488,,
2019-01-12T09:45:00,Denas Pond-0193,193.0,46.00718,-60.98854,2018-10-30,2019-09-17,HOBO-10755219,2.0,fixed,5.488,,
2019-01-12T10:00:00,Denas Pond-0193,193.0,46.00718,-60.98854,2018-10-30,2019-09-17,HOBO-10755219,2.0,fixed,5.591,,
2019-01-12T10:15:00,Denas Pond-0193,193.0,46.00718,-60.98854,2018-10-30,2019-09-17,HOBO-10755219,2.0,fixed,5.745,,
2019-01-12T10:30:00,Denas Pond-0193,193.0,46.00718,-60.98854,2018-10-30,2019-09-17,HOBO-10755219,2.0,fixed,5.77,,
2019-01-12T10:45:00,Denas Pond-0193,193.0,46.00718,-60.98854,2018-10-30,2019-09-17,HOBO-10755219,2.0,fixed,5.821,,
2019-01-12T11:00:00,Denas Pond-0193,193.0,46.00718,-60.98854,2018-10-30,2019-09-17,HOBO-10755219,2.0,fixed,5.796,,
2019-01-12T11:15:00,Denas Pond-0193,193.0,46.00718,-60.98854,2018-10-30,2019-09-17,HOBO-10755219,2.0,fixed,5.693,,
2019-01-12T11:30:00,Denas Pond-0193,193.0,46.00718,-60.98854,2018-10-30,2019-09-17,HOBO-10755219,2.0,fixed,5.719,,
2019-01-12T11:45:00,Denas Pond-0193,193.0,46.00718,-60.98854,2018-10-30,2019-09-17,HOBO-10755219,2.0,fixed,5.77,,
2019-01-12T12:00:00,Denas Pond-0193,193.0,46.00718,-60.98854,2018-10-30,2019-09-17,HOBO-10755219,2.0,fixed,5.821,,
2019-01-12T12:15:00,Denas Pond-0193,193.0,46.00718,-60.98854,2018-10-30,2019-09-17,HOBO-10755219,2.0,fixed,5.847,,
2019-01-12T12:30:00,Denas Pond-0193,193.0,46.00718,-60.98854,2018-10-30,2019-09-17,HOBO-10755219,2.0,fixed,5.821,,
2019-01-12T12:45:00,Denas Pond-0193,193.0,46.00718,-60.98854,2018-10-30,2019-09-17,HOBO-10755219,2.0,fixed,5.821,,
2019-01-12T13:00:00,Denas Pond-0193,193.0,46.00718,-60.98854,2018-10-30,2019-09-17,HOBO-10755219,2.0,fixed,5.847,,
2019-01-12T13:15:00,Denas Pond-0193,193.0,46.00718,-60.98854,2018-10-30,2019-09-17,HOBO-10755219,2.0,fixed,5.796,,
2019-01-12T13:30:00,Denas Pond-0193,193.0,46.00718,-60.98854,2018-10-30,2019-09-17,HOBO-10755219,2.0,fixed,5.821,,
2019-01-12T13:45:00,Denas Pond-0193,193.0,46.00718,-60.98854,2018-10-30,2019-09-17,HOBO-10755219,2.0,fixed,5.821,,
2019-01-12T14:00:00,Denas Pond-0193,193.0,46.00718,-60.98854,2018-10-30,2019-09-17,HOBO-10755219,2.0,fixed,5.872,,
2019-01-12T14:15:00,Denas Pond-0193,193.0,46.00718,-60.98854,2018-10-30,2019-09-17,HOBO-10755219,2.0,fixed,5.872,,
2019-01-12T14:30:00,Denas Pond-0193,193.0,46.00718,-60.98854,2018-10-30,2019-09-17,HOBO-10755219,2.0,fixed,5.872,,
2019-01-12T14:45:00,Denas Pond-0193,193.0,46.00718,-60.98854,2018-10-30,2019-09-17,HOBO-10755219,2.0,fixed,5.821,,
2019-01-12T15:00:00,Denas Pond-0193,193.0,46.00718,-60.98854,2018-10-30,2019-09-17,HOBO-10755219,2.0,fixed,5.821,,
2019-01-12T15:15:00,Denas Pond-0193,193.0,46.00718,-60.98854,2018-10-30,2019-09-17,HOBO-10755219,2.0,fixed,5.821,,
2019-01-12T15:30:00,Denas Pond-0193,193.0,46.00718,-60.98854,2018-10-30,2019-09-17,HOBO-10755219,2.0,fixed,5.821,,
2019-01-12T15:45:00,Denas Pond-0193,193.0,46.00718,-60.98854,2018-10-30,2019-09-17,HOBO-10755219,2.0,fixed,5.745,,
2019-01-12T16:00:00,Denas Pond-0193,193.0,46.00718,-60.98854,2018-10-30,2019-09-17,HOBO-10755219,2.0,fixed,5.719,,
2019-01-12T16:15:00,Denas Pond-0193,193.0,46.00718,-60.98854,2018-10-30,2019-09-17,HOBO-10755219,2.0,fixed,5.745,,
2019-01-12T16:30:00,Denas Pond-0193,193.0,46.00718,-60.98854,2018-10-30,2019-09-17,HOBO-10755219,2.0,fixed,5.77,,
2019-01-12T16:45:00,Denas Pond-0193,193.0,46.00718,-60.98854,2018-10-30,2019-09-17,HOBO-10755219,2.0,fixed,5.77,,
2019-01-12T17:00:00,Denas Pond-0193,193.0,46.00718,-60.98854,2018-10-30,2019-09-17,HOBO-10755219,2.0,fixed,5.796,,
2019-01-12T17:15:00,Denas Pond-0193,193.0,46.00718,-60.98854,2018-10-30,2019-09-17,HOBO-10755219,2.0,fixed,5.847,,
2019-01-12T17:30:00,Denas Pond-0193,193.0,46.00718,-60.98854,2018-10-30,2019-09-17,HOBO-10755219,2.0,fixed,5.847,,
2019-01-12T17:45:00,Denas Pond-0193,193.0,46.00718,-60.98854,2018-10-30,2019-09-17,HOBO-10755219,2.0,fixed,5.872,,
2019-01-12T18:00:00,Denas Pond-0193,193.0,46.00718,-60.98854,2018-10-30,2019-09-17,HOBO-10755219,2.0,fixed,5.872,,
2019-01-12T18:15:00,Denas Pond-0193,193.0,46.00718,-60.98854,2018-10-30,2019-09-17,HOBO-10755219,2.0,fixed,5.872,,
2019-01-12T18:30:00,Denas Pond-0193,193.0,46.00718,-60.98854,2018-10-30,2019-09-17,HOBO-10755219,2.0,fixed,5.872,,
2019-01-12T18:45:00,Denas Pond-0193,193.0,46.00718,-60.98854,2018-10-30,2019-09-17,HOBO-10755219,2.0,fixed,5.872,,
2019-01-12T19:00:00,Denas Pond-0193,193.0,46.00718,-60.98854,2018-10-30,2019-09-17,HOBO-10755219,2.0,fixed,5.847,,
2019-01-12T19:15:00,Denas Pond-0193,193.0,46.00718,-60.98854,2018-10-30,2019-09-17,HOBO-10755219,2.0,fixed,5.796,,
2019-01-12T19:30:00,Denas Pond-0193,193.0,46.00718,-60.98854,2018-10-30,2019-09-17,HOBO-10755219,2.0,fixed,5.719,,
2019-01-12T19:45:00,Denas Pond-0193,193.0,46.00718,-60.98854,2018-10-30,2019-09-17,HOBO-10755219,2.0,fixed,5.642,,
2019-01-12T20:00:00,Denas Pond-0193,193.0,46.00718,-60.98854,2018-10-30,2019-09-17,HOBO-10755219,2.0,fixed,5.539,,
2019-01-12T20:15:00,Denas Pond-0193,193.0,46.00718,-60.98854,2018-10-30,2019-09-17,HOBO-10755219,2.0,fixed,5.591,,
2019-01-12T20:30:00,Denas Pond-0193,193.0,46.00718,-60.98854,2018-10-30,2019-09-17,HOBO-10755219,2.0,fixed,5.616,,
2019-01-12T20:45:00,Denas Pond-0193,193.0,46.00718,-60.98854,2018-10-30,2019-09-17,HOBO-10755219,2.0,fixed,5.591,,
2019-01-12T21:00:00,Denas Pond-0193,193.0,46.00718,-60.98854,2018-10-30,2019-09-17,HOBO-10755219,2.0,fixed,5.539,,
2019-01-12T21:15:00,Denas Pond-0193,193.0,46.00718,-60.98854,2018-10-30,2019-09-17,HOBO-10755219,2.0,fixed,5.462,,
2019-01-12T21:30:00,Denas Pond-0193,193.0,46.00718,-60.98854,2018-10-30,2019-09-17,HOBO-10755219,2.0,fixed,5.514,,
2019-01-12T21:45:00,Denas Pond-0193,193.0,46.00718,-60.98854,2018-10-30,2019-09-17,HOBO-10755219,2.0,fixed,5.668,,
2019-01-12T22:00:00,Denas Pond-0193,193.0,46.00718,-60.98854,2018-10-30,2019-09-17,HOBO-10755219,2.0,fixed,5.693,,
2019-01-12T22:15:00,Denas Pond-0193,193.0,46.00718,-60.98854,2018-10-30,2019-09-17,HOBO-10755219,2.0,fixed,5.77,,
2019-01-12T22:30:00,Denas Pond-0193,193.0,46.00718,-60.98854,2018-10-30,2019-09-17,HOBO-10755219,2.0,fixed,5.924,,
2019-01-12T22:45:00,Denas Pond-0193,193.0,46.00718,-60.98854,2018-10-30,2019-09-17,HOBO-10755219,2.0,fixed,5.847,,
2019-01-12T23:00:00,Denas Pond-0193,193.0,46.00718,-60.98854,2018-10-30,2019-09-17,HOBO-10755219,2.0,fixed,5.745,,
2019-01-12T23:15:00,Denas Pond-0193,193.0,46.00718,-60.98854,2018-10-30,2019-09-17,HOBO-10755219,2.0,fixed,5.796,,
2019-01-12T23:30:00,Denas Pond-0193,193.0,46.00718,-60.98854,2018-10-30,2019-09-17,HOBO-10755219,2.0,fixed,5.898,,
2019-01-12T23:45:00,Denas Pond-0193,193.0,46.00718,-60.98854,2018-10-30,2019-09-17,HOBO-10755219,2.0,fixed,6.0,,
